User: anonymous   Login
Location: Prairie State College
(41.5244°N, 87.6382°W)
Time: 00:47:18
(UTC-05:00)
Language:

Cosmos 1140 Rocket - Orbit

View from above orbital plane
View from above orbital plane
View from above satellite
View from above satellite

Ground track
Ground track

The orbit data is extracted from the following two-line orbital elements,

1 11574U 79089B   15141.55166602  .00000140  00000-0  52160-4 0  9997
2 11574 074.0687 177.3537 0017248 275.0917 084.8269 14.40459492868043
Epoch (UTC): 21 May 2015 13:14:23
Eccentricity: 0.0017248
inclination: 74.0687°
perigee height: 744 km
apogee height: 769 km
right ascension of ascending node: 177.3537°
argument of perigee: 275.0917°
revolutions per day: 14.40459492
mean anomaly at epoch: 84.8269°
orbit number at epoch: 86804

The dashed part of the orbit path shows where the satellite is in the earth's shadow,  

DLR